sat.trackr.live / text

‹ back to catalog

BANDWAGON-2 OBJECT J

NORAD 62385 · 2024-247J

PAYLOAD ACTIVE UNKNOWN

§ Identity

Operator
Country
TBD
Launch date
2024-12-21
Launch site
AFWTR
Launch vehicle
Mass (kg)
RCS (m²)

External: N2YO · Heavens-Above · Gunter

§ Orbital elements

Epoch: 2026-09-21T03:24:47.602368Z

Period
92.31 min
Inclination
44.9985°
Eccentricity
0.0007243
Mean motion
15.60013693 rev/d
Perigee alt
382.7 km
Apogee alt
392.5 km
Semi-major
6,765.8 km
B*
6.0466e-4
RAAN
65.4373°
Arg perigee
250.5650°
Mean anomaly
109.4463°
Rev number
9,839

§ Raw data

BANDWAGON-2 OBJECT J1 62385U 24247J   26264.14221762  .00050099  00000+0  60466-3 0  99952 62385  44.9985  65.4373 0007243 250.5650 109.4463 15.60013693 98392

JSON: /api/v1/satellites/62385 · /tle

For live sub-satellite position, see the globe view (requires WebGL).

§ Visibility from observer

Set your observer location to see the next 7 days of passes ≥ 10°. The values pass through the URL so the page stays shareable.

No JS? Fill the form by hand. The geolocation button needs JavaScript.